Volver al catálogo

STARLINK-5545

ActivoComunicacionesVLEO
NORAD 56476·PAYLOAD·🇺🇸 United States

Lanzado May 10, 2023 desde Vandenberg Space Force Base

Loading…

Próximos Pases (próximas 24 horas)

TLE

ActualizadoSource: CelesTrak SupGP

Época: Sep 15, 2026, 03:17 UTC

1 56476C 23064AE  26258.13729167  .00543610  00000+0  43551-1 0  2587
2 56476  70.0006   6.8599 0003167 268.4901 141.6131 14.99789481    15

Sigue STARLINK-5545 en tiempo real con AllMySat

Download on the App Store